Weather Roundup
Issued by NWS Springfield, MO

Home | Current Version | Previous Version | Text Only | Print | Product List | Glossary On
Versions: 1 2 3 4 5 6 7 8 9 10 11 12 13 14 15 16 17 18 19 20 21 22 23 24 25 26 27 28 29 30 31 32 33 34 35 36 37 38 39 40 41 42 43 44 45 46 47 48 49 50
579
NZUS99 KSGF 061257
HRRSGF

HOURLY WEATHER
NATIONAL WEATHER SERVICE SPRINGFIELD MO
800 AM CDT FRI MAY 06 2016

......SGF CWA......

CITY           SKY/WX    TMP DP  RH WIND       PRES   REMARKS
SPRINGFIELD    SUNNY     52  42  69 S3        30.11R
JOPLIN         SUNNY     55  44  66 CALM      30.11R
WEST PLAINS    SUNNY     54  42  64 W5        30.12S
ROLLA          SUNNY     51  42  71 SW8       30.09R
BRANSON        SUNNY     50  39  66 CALM      30.13R

......SURROUNDING SGF CWA......

CITY           SKY/WX    TMP DP  RH WIND       PRES   REMARKS
CHANUTE        SUNNY     56  49  77 S3        30.10R
PARSONS        SUNNY     54  51  90 CALM      30.11R
COFFEYVILLE    SUNNY     54  51  90 CALM      30.11R
EMPORIA        MOSUNNY   56  49  77 S5        30.08R
HARRISON AR    SUNNY     52  42  69 CALM      30.12R

......KANSAS AND MISSOURI......

CITY           SKY/WX    TMP DP  RH WIND       PRES   REMARKS
KANSAS CTY INT SUNNY     57  44  62 S7        30.07S
SEDALIA        SUNNY     55  44  66 SW8       30.10R
ST JOSEPH      SUNNY     55  49  80 S3        30.07R
ST LOUIS       SUNNY     56  45  66 W5        30.09R
WICHITA        MOSUNNY   56  50  80 CALM      30.08R
TOPEKA         SUNNY     55  50  83 E3        30.08R
OLATHE         SUNNY     55  44  66 S5        30.09R

......TENNESSEE......

CITY           SKY/WX    TMP DP  RH WIND       PRES   REMARKS
MEMPHIS        NOT AVBL
NASHVILLE      MOSUNNY   55  44  66 NW7       30.04R

......ARKANSAS.......

CITY           SKY/WX    TMP DP  RH WIND       PRES   REMARKS
FAYETTEVILLE   SUNNY     45  43  93 CALM      30.13R
FT SMITH       SUNNY     54  47  77 E6        30.12R
LITTLE ROCK    SUNNY     59  48  67 N5        30.12R

......OKLAHOMA.......

CITY           SKY/WX    TMP DP  RH WIND       PRES   REMARKS
TULSA          MOSUNNY   57  53  86 CALM      30.10R
PONCA CITY     SUNNY     54  49  83 CALM      30.10R
MCALESTER      MOSUNNY   54  49  83 CALM      30.13R
OKLAHOMA CITY  PTSUNNY   57  52  83 SE5       30.10R

......IOWA............

CITY           SKY/WX    TMP DP  RH WIND       PRES   REMARKS
DES MOINES     NOT AVBL
QUAD CITIES    SUNNY     57  44  62 E3        30.02R

......ILLINOIS........

CITY           SKY/WX    TMP DP  RH WIND       PRES   REMARKS
QUINCY         NOT AVBL
CHICAGO        CLOUDY    55  42  61 W7        29.99S




USA.gov is the U.S. government's official web portal to all federal, state and local government web resources and services.